When you browse on this site, cookies collect data to enhance your experience and personalize the content and advertising you see.
Visit our Privacy Policy to learn more. By continuing to use the site, you agree to this use of cookies and data.
  • Em Portugal
  • Lista de países
  • Para 7 dias
  • Temperatura da água
  • Mapas de satélite
  • Mapa do tempo
  • Widgets de tempo
  • user-avatar
    Iniciar Sessão

    Previsão horária em Zaranj

    Hoje, 24 Maio, Sexta-feira

    Tempo Temperatura Precipitação Vento Pressão Humidade
    00:00 +27°C° 0 mm 8 m/s 716 mmHg 28%
    01:00 +27°C° 0 mm 8 m/s 716 mmHg 28%
    02:00 +26°C° 0 mm 7 m/s 716 mmHg 29%
    03:00 +26°C° 0 mm 6 m/s 716 mmHg 30%
    04:00 +24°C° 0 mm 6 m/s 716 mmHg 32%
    05:00 +24°C° 0 mm 6 m/s 717 mmHg 31%
    06:00 +24°C° 0 mm 6 m/s 717 mmHg 30%
    07:00 +26°C° 0 mm 6 m/s 718 mmHg 29%
    08:00 +27°C° 0 mm 6 m/s 718 mmHg 27%
    09:00 +29°C° 0 mm 6 m/s 718 mmHg 25%
    10:00 +30°C° 0 mm 7 m/s 718 mmHg 21%
    11:00 +32°C° 0 mm 6 m/s 718 mmHg 19%
    12:00 +33°C° 0 mm 6 m/s 718 mmHg 17%
    13:00 +34°C° 0 mm 6 m/s 718 mmHg 16%
    14:00 +35°C° 0 mm 5 m/s 717 mmHg 16%
    15:00 +35°C° 0 mm 5 m/s 717 mmHg 15%
    16:00 +36°C° 0 mm 5 m/s 717 mmHg 15%
    17:00 +36°C° 0 mm 4 m/s 717 mmHg 16%
    18:00 +35°C° 0 mm 3 m/s 717 mmHg 17%
    19:00 +35°C° 0 mm 2 m/s 717 mmHg 18%
    20:00 +34°C° 0 mm 3 m/s 717 mmHg 20%
    21:00 +34°C° 0 mm 3 m/s 717 mmHg 21%
    22:00 +33°C° 0 mm 3 m/s 717 mmHg 22%
    23:00 +31°C° 0 mm 3 m/s 717 mmHg 23%

    Amanhã, 25 Maio, Sábado

    Tempo Temperatura Precipitação Vento Pressão Humidade
    00:00 +31°C° 0 mm 3 m/s 717 mmHg 25%
    01:00 +30°C° 0 mm 3 m/s 717 mmHg 26%
    02:00 +30°C° 0 mm 3 m/s 717 mmHg 27%
    03:00 +30°C° 0 mm 3 m/s 717 mmHg 27%
    04:00 +29°C° 0 mm 3 m/s 717 mmHg 28%
    05:00 +30°C° 0 mm 3 m/s 717 mmHg 27%
    06:00 +32°C° 0 mm 4 m/s 717 mmHg 25%
    07:00 +33°C° 0 mm 4 m/s 718 mmHg 24%
    08:00 +34°C° 0 mm 4 m/s 718 mmHg 22%
    09:00 +35°C° 0 mm 5 m/s 718 mmHg 20%
    10:00 +37°C° 0 mm 5 m/s 718 mmHg 18%
    11:00 +39°C° 0 mm 6 m/s 718 mmHg 16%
    12:00 +40°C° 0 mm 6 m/s 718 mmHg 15%
    13:00 +41°C° 0 mm 7 m/s 717 mmHg 14%
    14:00 +41°C° 0 mm 7 m/s 717 mmHg 14%
    15:00 +41°C° 0 mm 7 m/s 716 mmHg 13%
    16:00 +41°C° 0 mm 7 m/s 716 mmHg 12%
    17:00 +41°C° 0 mm 6 m/s 716 mmHg 13%
    18:00 +40°C° 0 mm 6 m/s 716 mmHg 13%
    19:00 +39°C° 0 mm 6 m/s 715 mmHg 14%
    20:00 +38°C° 0 mm 6 m/s 716 mmHg 14%
    21:00 +36°C° 0 mm 7 m/s 716 mmHg 15%
    22:00 +35°C° 0 mm 7 m/s 716 mmHg 15%
    23:00 +35°C° 0 mm 7 m/s 716 mmHg 16%

    Depois de amanhã, 26 Maio, Domingo

    Tempo Temperatura Precipitação Vento Pressão Humidade
    00:00 +34°C° 0 mm 6 m/s 716 mmHg 17%
    01:00 +33°C° 0 mm 6 m/s 716 mmHg 19%
    02:00 +32°C° 0 mm 7 m/s 716 mmHg 21%
    03:00 +32°C° 0 mm 8 m/s 716 mmHg 22%
    04:00 +31°C° 0 mm 8 m/s 716 mmHg 24%
    05:00 +31°C° 0 mm 9 m/s 716 mmHg 23%
    06:00 +32°C° 0 mm 10 m/s 716 mmHg 22%
    07:00 +32°C° 0 mm 11 m/s 717 mmHg 20%
    08:00 +33°C° 0 mm 11 m/s 717 mmHg 19%
    09:00 +36°C° 0 mm 11 m/s 717 mmHg 17%
    10:00 +37°C° 0 mm 12 m/s 717 mmHg 16%
    11:00 +38°C° 0 mm 12 m/s 717 mmHg 15%
    12:00 +39°C° 0 mm 12 m/s 716 mmHg 14%
    13:00 +41°C° 0 mm 11 m/s 716 mmHg 13%
    14:00 +41°C° 0 mm 11 m/s 716 mmHg 12%
    15:00 +41°C° 0 mm 11 m/s 715 mmHg 12%
    16:00 +41°C° 0 mm 11 m/s 715 mmHg 11%
    17:00 +39°C° 0 mm 10 m/s 715 mmHg 12%
    18:00 +38°C° 0 mm 9 m/s 715 mmHg 12%
    19:00 +37°C° 0 mm 9 m/s 715 mmHg 13%
    20:00 +37°C° 0 mm 9 m/s 715 mmHg 14%
    21:00 +36°C° 0 mm 10 m/s 715 mmHg 15%
    22:00 +34°C° 0 mm 10 m/s 716 mmHg 16%
    23:00 +33°C° 0 mm 10 m/s 715 mmHg 17%

    27 Maio, Segunda-feira

    Tempo Temperatura Precipitação Vento Pressão Humidade
    00:00 +33°C° 0 mm 9 m/s 715 mmHg 17%
    01:00 +32°C° 0 mm 8 m/s 715 mmHg 18%
    02:00 +32°C° 0 mm 8 m/s 715 mmHg 19%
    03:00 +31°C° 0 mm 8 m/s 715 mmHg 20%
    04:00 +31°C° 0 mm 8 m/s 715 mmHg 20%
    05:00 +31°C° 0 mm 8 m/s 715 mmHg 19%
    06:00 +32°C° 0 mm 9 m/s 715 mmHg 18%
    07:00 +32°C° 0 mm 9 m/s 715 mmHg 17%
    08:00 +34°C° 0 mm 10 m/s 716 mmHg 15%
    09:00 +36°C° 0 mm 10 m/s 716 mmHg 13%
    10:00 +38°C° 0 mm 10 m/s 716 mmHg 11%
    11:00 +39°C° 0 mm 9 m/s 716 mmHg 10%
    12:00 +40°C° 0 mm 9 m/s 716 mmHg 9%
    13:00 +41°C° 0 mm 8 m/s 715 mmHg 8%
    14:00 +43°C° 0 mm 8 m/s 715 mmHg 8%
    15:00 +43°C° 0 mm 8 m/s 714 mmHg 7%
    16:00 +43°C° 0 mm 8 m/s 714 mmHg 7%
    17:00 +41°C° 0 mm 8 m/s 714 mmHg 8%
    18:00 +40°C° 0 mm 8 m/s 714 mmHg 9%
    19:00 +39°C° 0 mm 8 m/s 714 mmHg 10%
    20:00 +38°C° 0 mm 8 m/s 714 mmHg 11%
    21:00 +37°C° 0 mm 8 m/s 715 mmHg 12%
    22:00 +37°C° 0 mm 8 m/s 715 mmHg 13%
    23:00 +35°C° 0 mm 8 m/s 715 mmHg 14%

    28 Maio, Terça-feira

    Tempo Temperatura Precipitação Vento Pressão Humidade
    00:00 +34°C° 0 mm 8 m/s 715 mmHg 15%
    01:00 +33°C° 0 mm 8 m/s 714 mmHg 16%
    02:00 +33°C° 0 mm 7 m/s 714 mmHg 17%
    03:00 +32°C° 0 mm 7 m/s 714 mmHg 18%
    04:00 +32°C° 0 mm 6 m/s 714 mmHg 18%
    05:00 +32°C° 0 mm 7 m/s 714 mmHg 18%
    06:00 +33°C° 0 mm 7 m/s 715 mmHg 17%
    07:00 +33°C° 0 mm 8 m/s 715 mmHg 16%
    08:00 +35°C° 0 mm 9 m/s 715 mmHg 14%
    09:00 +37°C° 0 mm 9 m/s 716 mmHg 12%
    10:00 +39°C° 0 mm 9 m/s 716 mmHg 11%
    11:00 +40°C° 0 mm 9 m/s 715 mmHg 10%
    12:00 +42°C° 0 mm 9 m/s 715 mmHg 9%
    13:00 +44°C° 0 mm 9 m/s 715 mmHg 7%
    14:00 +44°C° 0 mm 9 m/s 714 mmHg 7%
    15:00 +44°C° 0 mm 9 m/s 714 mmHg 7%
    16:00 +44°C° 0 mm 9 m/s 713 mmHg 7%
    17:00 +43°C° 0 mm 9 m/s 713 mmHg 8%
    18:00 +42°C° 0 mm 9 m/s 713 mmHg 9%
    19:00 +40°C° 0 mm 9 m/s 713 mmHg 10%
    20:00 +39°C° 0 mm 10 m/s 714 mmHg 11%
    21:00 +38°C° 0 mm 10 m/s 714 mmHg 12%
    22:00 +37°C° 0 mm 10 m/s 714 mmHg 12%
    23:00 +37°C° 0 mm 10 m/s 714 mmHg 14%

    29 Maio, Quarta-feira

    Tempo Temperatura Precipitação Vento Pressão Humidade
    00:00 +36°C° 0 mm 10 m/s 714 mmHg 15%
    01:00 +34°C° 0 mm 10 m/s 714 mmHg 16%
    02:00 +33°C° 0 mm 10 m/s 714 mmHg 16%
    03:00 +33°C° 0 mm 9 m/s 714 mmHg 16%
    04:00 +32°C° 0 mm 9 m/s 714 mmHg 17%
    05:00 +32°C° 0 mm 10 m/s 714 mmHg 18%
    06:00 +32°C° 0 mm 11 m/s 715 mmHg 19%
    07:00 +32°C° 0 mm 12 m/s 715 mmHg 20%
    08:00 +34°C° 0 mm 12 m/s 715 mmHg 18%
    09:00 +36°C° 0 mm 12 m/s 715 mmHg 17%
    10:00 +38°C° 0 mm 12 m/s 715 mmHg 16%
    11:00 +39°C° 0 mm 11 m/s 715 mmHg 14%
    12:00 +41°C° 0 mm 11 m/s 715 mmHg 12%
    13:00 +42°C° 0 mm 10 m/s 714 mmHg 10%
    14:00 +42°C° 0 mm 10 m/s 714 mmHg 10%
    15:00 +42°C° 0 mm 10 m/s 713 mmHg 10%
    16:00 +42°C° 0 mm 10 m/s 713 mmHg 9%
    17:00 +40°C° 0 mm 10 m/s 713 mmHg 11%
    18:00 +39°C° 0 mm 10 m/s 713 mmHg 12%
    19:00 +39°C° 0 mm 9 m/s 713 mmHg 13%
    20:00 +38°C° 0 mm 9 m/s 714 mmHg 14%
    21:00 +37°C° 0 mm 10 m/s 714 mmHg 15%
    22:00 +36°C° 0 mm 10 m/s 714 mmHg 17%
    23:00 +34°C° 0 mm 10 m/s 714 mmHg 17%
    Mostrar mais